sat.trackr.live / text

‹ back to catalog

SPACEMOBILE-003

NORAD 61045 · 2024-163A

PAYLOAD ACTIVE UNKNOWN

§ Identity

Operator
Country
US
Launch date
2024-09-12
Launch site
AFETR
Launch vehicle
Mass (kg)
RCS (m²)

External: N2YO · Heavens-Above · Gunter

§ Orbital elements

Epoch: 2026-05-24T03:56:51.882432Z

Period
94.70 min
Inclination
52.9673°
Eccentricity
0.0006472
Mean motion
15.20664605 rev/d
Perigee alt
499.4 km
Apogee alt
508.3 km
Semi-major
6,882.0 km
B*
-2.0578e-3
RAAN
59.9021°
Arg perigee
52.4454°
Mean anomaly
307.7127°
Rev number
9,411

§ Raw data

SPACEMOBILE-0031 61045U 24163A   26144.16448938 -.00045829  00000+0 -20578-2 0  99952 61045  52.9673  59.9021 0006472  52.4454 307.7127 15.20664605 94116

JSON: /api/v1/satellites/61045 · /tle

For live sub-satellite position, see the globe view (requires WebGL).

§ Visibility from observer

Set your observer location to see the next 7 days of passes ≥ 10°. The values pass through the URL so the page stays shareable.

No JS? Fill the form by hand. The geolocation button needs JavaScript.

§ Radio — SatNOGS DB

ModeDescriptionDownlinkUplink
GFSK Mode U - Transmitter 434.100 MHz
BPSK S-band telemetry 2.225 GHz

2 transmitters · refreshed weekly from db.satnogs.org